DMSP 5D-2 F13 DEB, 42318

Orbit data source: Space-Track

DMSP 5D-2 F13 DEB, 42318 is space debris in SSO originally from a launch on Fri, 24 Mar 1995 UTC launched from the Air Force Western Test Range (AFWTR). Debris objects in space refer to the collection of defunct objects orbiting the Earth. Examples of debris include non-operational satellites, rocket bodies, and fragments generated from explosions, collisions, or faulty payload assembly.

Loading next visibility...
Identifier
42318, 1995-015JL
Orbit
SSO
Country
Flag of USUS
Related business
Manufacturer
Unknown
Mission
Spacecraft
Bus & Motor
Unknown
Mass
Unknown
Launch date (UTC)
1995-03-24 (31 years ago)
Launch vehicle
Unknown
Launch site
Air Force Western Test Range (AFWTR)
Object type
Payload
Rocket body
Debris
Shape & HBR
Unknown shape, 0.1 m
Radar Cross Section
Small (<0.1 m²)

Expand to show TLE details & history
Last TLE update: 18 hours ago

TLE from 18 hours ago
0 DMSP 5D-2 F13 DEB
1 42318U 95015JL  25297.61600799  .00004872  00000-0  37379-2 0  9993
2 42318  98.7388 354.5432 0200766 317.5782  41.0003 13.84630347511490
Epoch: 2025-10-24T14:47Z
TLE epoch observation values (Epoch: 2025-10-24T14:47:03.090Z)
Latitude
Longitude
99.52197°
Altitude
840.658 km
Speed
7.488 km/s
True Right ascension
23h 38m 10s
True Declination
0° 00' 00"
Sunlit
Object was in full shadow at epoch
Visualization orbit readout
Latitude
Unknown
Longitude
Unknown
Altitude
Unknown
Speed
Unknown
Apparent Right ascension
Unknown
Apparent Declination
Unknown
Sunlit
N/A
Visualization observer readout
Local Sidereal Time
04:04:42
Azimuth
Unknown
Elevation
Unknown
Doppler factor
Unknown
Orbital elements
Apogee altitude
1,091.733 km
Perigee altitude
797.697 km
Semi-major axis
7,322.852 km
Eccentricity
0.02008
Inclination
98.7388°
RAAN
354.5432°
Arg. of periapsis
317.5782°
True anomaly
42.53857°
Mean anomaly
41.0003°
Eccentric anomaly
41.76651°
Mean motion
3.46356 °/min
Orbital period
103.94 mins
BSTAR
0.0037379
Loading maneuver chart data...
Computing Atmospheric mass density...

Documentation

Showing up to 5 results
|